Powrót do katalogu

STARLINK-2367

AktywnyŁącznośćVLEO
NORAD 47907·PAYLOAD·🇺🇸 United States

Wystrzelony Mar 14, 2021 z Cape Canaveral Space Force Station

Loading…

Następne Przeloty (najbliższe 24 godziny)

TLE

ŚwieżeSource: CelesTrak SupGP

Epoka: Sep 14, 2026, 13:06 UTC

1 47907C 21021AZ  26257.54631944  .00040457  00000+0  13014-2 0  2578
2 47907  53.1568 122.2290 0001111  92.1175  89.7966 15.31671404    12

Śledź STARLINK-2367 w czasie rzeczywistym z AllMySat

Download on the App Store